DW9572 Weather Reports


time (UTC)temp
F
wind
direction
speed
knots
gust
knots
rain 1hr
in
rain 24hr
in
rain mn
in
humidity
%
barometer
mb
20260507111531 55 126 0.0 2.6 0.00 0.00 0.00 72 1013.7
20260507110025 54 120 0.0 1.7 0.00 0.00 0.00 74 1013.5
20260507104517 53 84 0.9 5.2 0.00 0.00 0.00 75 1013.5
20260507103007 55 64 3.5 6.1 0.00 0.00 0.00 67 1013.2
20260507101507 56 263 4.3 7.0 0.00 0.00 0.00 67 1013.0
20260507100008 56 283 5.2 7.8 0.00 0.00 0.00 68 1013.1
20260507094502 58 316 1.7 4.3 0.00 0.00 0.00 54 1013.0
20260507093001 58 294 1.7 3.5 0.00 0.00 0.00 58 1013.0
20260507091559 60 328 5.2 9.6 0.00 0.00 0.00 56 1013.1
20260507090100 59 301 2.6 4.3 0.00 0.00 0.00 57 1013.3
20260507084602 59 309 0.9 3.5 0.00 0.00 0.00 62 1013.3
20260507083035 61 127 1.7 5.2 0.00 0.00 0.00 58 1013.2
20260507081534 61 242 2.6 8.7 0.00 0.00 0.00 58 1013.0
20260507080017 62 260 3.5 10.4 0.00 0.00 0.00 57 1012.9
20260507074516 61 138 1.7 8.7 0.00 0.00 0.00 52 1013.1
20260507073059 64 276 6.1 11.3 0.00 0.00 0.00 44 1012.6
20260507071555 63 307 6.1 11.3 0.00 0.00 0.00 47 1012.6
20260507070044 62 345 8.7 13.0 0.00 0.00 0.00 48 1012.5
20260507064544 64 360 7.8 13.0 0.00 0.00 0.00 46 1012.6
20260507063017 66 20 4.3 7.0 0.00 0.00 0.00 42 1012.2
20260507061517 67 305 2.6 6.1 0.00 0.00 0.00 40 1011.9
20260507060100 66 277 4.3 7.8 0.00 0.00 0.00 42 1011.8
20260507054600 69 345 6.1 7.8 0.00 0.00 0.00 39 1012.0
20260507053049 67 69 3.5 4.3 0.00 0.00 0.00 40 1012.1
20260507051548 67 345 0.0 4.3 0.00 0.00 0.00 42 1011.8
20260507050104 68 273 0.0 0.0 0.00 0.00 0.00 41 1011.7
20260507044553 70 328 0.9 5.2 0.00 0.00 0.00 39 1011.7
20260507043046 69 77 0.0 4.3 0.00 0.00 0.00 40 1011.5
20260507041547 69 63 0.0 0.0 0.00 0.00 0.00 41 1011.4
20260507040048 71 176 0.0 0.9 0.00 0.00 0.00 39 1011.3
20260507034546 71 262 0.0 4.3 0.00 0.00 0.00 40 1011.0
20260507033029 72 201 0.9 3.5 0.00 0.00 0.00 38 1010.8
20260507031523 73 18 0.9 3.5 0.00 0.00 0.00 37 1010.5
20260507030005 75 19 0.0 5.2 0.00 0.00 0.00 35 1010.4
20260507024502 78 322 7.0 14.8 0.00 0.00 0.00 31 1010.2
20260507023044 78 339 5.2 13.0 0.00 0.00 0.00 32 1010.2
20260507021554 78 320 4.3 11.3 0.00 0.00 0.00 32 1010.2
20260507020026 78 41 9.6 13.9 0.00 0.00 0.00 31 1010.0
20260507014525 79 340 7.0 11.3 0.00 0.00 0.00 30 1010.0
20260507013009 80 353 9.6 15.6 0.00 0.00 0.00 29 1009.8
20260507011514 80 335 7.8 12.2 0.00 0.00 0.00 28 1009.7
20260507010048 81 43 7.0 14.8 0.00 0.00 0.00 27 1009.7
20260507004547 82 20 8.7 14.8 0.00 0.00 0.00 25 1009.7
20260507003029 83 360 7.0 12.2 0.00 0.00 0.00 26 1009.8
20260507001530 83 228 12.2 16.5 0.00 0.00 0.00 36 1009.0
20260507000007 84 214 10.4 18.2 0.00 0.00 0.00 34 1008.8
20260506234507 85 245 15.6 22.6 0.00 0.00 0.00 32 1008.7
20260506233050 85 252 17.4 23.5 0.00 0.00 0.00 33 1008.7
20260506231546 85 233 19.1 24.3 0.00 0.00 0.00 33 1008.7
20260506230026 85 229 15.6 23.5 0.00 0.00 0.00 31 1009.0
20260506224526 85 211 18.2 23.5 0.00 0.00 0.00 30 1009.1
20260506223004 85 203 16.5 21.7 0.00 0.00 0.00 31 1009.5
20260506221601 83 210 11.3 19.1 0.00 0.00 0.00 31 1009.7
20260506220040 84 240 15.6 20.9 0.00 0.00 0.00 29 1009.9
20260506214539 84 207 15.6 20.9 0.00 0.00 0.00 31 1010.0
20260506213020 83 231 18.2 24.3 0.00 0.00 0.00 31 1010.0
20260506211513 83 200 18.2 28.7 0.00 0.00 0.00 33 1010.2
20260506210054 83 210 18.2 27.8 0.00 0.00 0.00 32 1010.3
20260506204559 82 227 21.7 29.5 0.00 0.00 0.00 32 1010.4
20260506203034 82 239 17.4 28.7 0.00 0.00 0.00 33 1010.4
20260506201536 82 211 20.0 30.4 0.00 0.00 0.00 33 1010.4
20260506200022 82 245 20.9 27.8 0.00 0.00 0.00 33 1010.5
20260506194518 81 262 21.7 32.2 0.00 0.00 0.00 34 1010.7
20260506193018 81 226 16.5 26.9 0.00 0.00 0.00 36 1011.0
20260506191514 80 274 17.4 26.9 0.00 0.00 0.00 35 1011.0
20260506190011 79 201 21.7 27.8 0.00 0.00 0.00 39 1011.0
20260506184509 79 210 18.2 25.2 0.00 0.00 0.00 40 1011.2
20260506183007 78 230 17.4 23.5 0.00 0.00 0.00 41 1011.3
20260506181505 77 224 14.8 20.0 0.00 0.00 0.00 43 1011.4
20260506180045 76 249 13.0 19.1 0.00 0.00 0.00 44 1011.6
20260506174543 75 200 13.0 18.2 0.00 0.00 0.00 44 1012.0
20260506173023 75 219 12.2 19.1 0.00 0.00 0.00 46 1011.8
20260506171534 74 250 14.8 21.7 0.00 0.00 0.00 45 1011.8
20260506170001 73 249 13.0 19.1 0.00 0.00 0.00 46 1012.1
20260506164558 73 215 13.9 19.1 0.00 0.00 0.00 47 1012.2
20260506163037 72 229 13.0 19.1 0.00 0.00 0.00 48 1012.3
20260506161539 71 215 13.9 18.2 0.00 0.00 0.00 49 1012.3
20260506160011 70 238 13.0 19.1 0.00 0.00 0.00 52 1012.2
20260506154507 69 215 13.0 18.2 0.00 0.00 0.00 53 1012.1
20260506153047 69 235 13.0 20.0 0.00 0.00 0.00 55 1012.0
20260506151602 68 241 13.0 17.4 0.00 0.00 0.00 54 1012.0
20260506150031 68 207 13.9 19.1 0.00 0.00 0.00 51 1012.1
20260506144526 68 202 8.7 13.9 0.00 0.00 0.00 50 1012.1
20260506143025 68 277 7.8 13.0 0.00 0.00 0.00 47 1012.0
20260506141503 67 232 5.2 13.0 0.00 0.00 0.00 47 1012.0
20260506140059 66 257 7.0 12.2 0.00 0.00 0.00 47 1011.9
20260506134545 63 266 3.5 6.1 0.00 0.00 0.00 52 1011.7
20260506133045 62 165 0.0 0.0 0.00 0.00 0.00 54 1011.6
20260506131541 61 210 0.0 0.0 0.00 0.00 0.00 54 1011.4
20260506130038 62 259 0.0 0.0 0.00 0.00 0.00 51 1011.3
20260506124537 63 290 0.0 4.3 0.00 0.00 0.00 48 1011.1
20260506123034 63 267 0.0 6.1 0.00 0.00 0.00 49 1011.1
20260506121530 63 271 4.3 7.0 0.00 0.00 0.00 52 1010.9
20260506120011 63 296 0.0 2.6 0.00 0.00 0.00 51 1010.7
20260506114509 62 316 1.7 5.2 0.00 0.00 0.00 52 1010.6
20260506113111 63 302 0.9 3.5 0.00 0.00 0.00 52 1010.5